Weather History for KVLL - March, 2013

Change the Weather History Date:

Friday, March 29, 2013

  Actual Average (KDET) Record (KDET)
Temperature  
Mean Temperature 42 °F -  
Max Temperature 53 °F 52 °F 79 °F (1986)
Min Temperature 32 °F 36 °F 20 °F (1954)
Degree Days  
Heating Degree Days 22    
Moisture  
Dew Point 21 °F    
Average Humidity 43    
Maximum Humidity 64    
Minimum Humidity 26    
Precipitation  
Precipitation 0.00 in - - ()
Sea Level Pressure  
Sea Level Pressure 30.26 in    
Wind  
Wind Speed 6 mph (NW)    
Max Wind Speed 10 mph    
Max Gust Speed -    
Visibility 10 miles    
Events      
Averages and records for this station are not official NWS values.
T = Trace of Precipitation, MM = Missing Value Source: NWS Daily Summary

Daily Weather History Graph

Daily Weather History Graph

Search for Another Location

Airport or City:

Trip Planner

Search our weather history database for the weather conditions in past years. The results will help you decide how hot, cold, wet, or windy it might be!

Date:

Astronomy

Mar. 29, 2013 Rise Set
Actual Time 7:19 AM EDT 7:55 PM EDT
Civil Twilight 6:51 AM EDT 8:23 PM EDT
Nautical Twilight 6:18 AM EDT 8:57 PM EDT
Astronomical Twilight 5:43 AM EDT 9:32 PM EDT
Moon 10:58 PM EDT 8:24 AM EDT
Length of Visible Light 13h 32m
Length of Day
12h 35m
Waning Gibbous, 93% of the Moon is Illuminated
Mar 29
Waning Gibbous
Apr 3
Last Quarter
Apr 10
New
Apr 18
First Quarter
Apr 25
Full

Hourly Weather History & Observations

Time (EDT) Temp. Windchill Dew Point Humidity Pressure Visibility Wind Dir Wind Speed Gust Speed Precip Events Conditions
12:15 AM 41.2 °F 36.0 °F 23.9 °F 50% 30.27 in 10.0 mi WNW 8.1 mph - N/A   Clear
12:35 AM 40.5 °F 35.1 °F 24.1 °F 52% 30.27 in 10.0 mi NW 8.1 mph - N/A   Clear
12:55 AM 40.1 °F 35.3 °F 23.7 °F 52% 30.27 in 10.0 mi WNW 6.9 mph - N/A   Clear
1:15 AM 39.6 °F 34.7 °F 23.4 °F 52% 30.27 in 10.0 mi WNW 6.9 mph - N/A   Clear
1:35 AM 39.2 °F 33.6 °F 23.0 °F 52% 30.27 in 10.0 mi WNW 8.1 mph - N/A   Clear
1:55 AM 38.7 °F 31.8 °F 22.8 °F 53% 30.28 in 10.0 mi WNW 10.4 mph - N/A   Clear
2:15 AM 38.3 °F 32.5 °F 22.8 °F 54% 30.27 in 10.0 mi WNW 8.1 mph - N/A   Clear
2:35 AM 37.8 °F 31.3 °F 22.8 °F 55% 30.28 in 10.0 mi NW 9.2 mph - N/A   Clear
2:55 AM 37.4 °F 32.1 °F 22.8 °F 56% 30.28 in 10.0 mi WNW 6.9 mph - N/A   Clear
3:14 AM 37.4 °F 32.1 °F 22.8 °F 56% 30.27 in 10.0 mi NW 6.9 mph - N/A   Clear
3:35 AM 36.9 °F 30.7 °F 22.6 °F 56% 30.27 in 10.0 mi NW 8.1 mph - N/A   Clear
3:55 AM 36.5 °F 30.3 °F 22.3 °F 56% 30.27 in 10.0 mi NW 8.1 mph - N/A   Clear
4:15 AM 36.0 °F 30.3 °F 22.1 °F 57% 30.27 in 10.0 mi NW 6.9 mph - N/A   Clear
4:35 AM 35.8 °F 31.9 °F 22.1 °F 58% 30.27 in 10.0 mi NW 4.6 mph - N/A   Clear
4:55 AM 35.4 °F 32.6 °F 22.1 °F 58% 30.27 in 10.0 mi NW 3.5 mph - N/A   Clear
5:15 AM 35.1 °F 32.2 °F 22.1 °F 59% 30.27 in 10.0 mi WNW 3.5 mph - N/A   Clear
5:35 AM 34.7 °F 31.8 °F 21.9 °F 60% 30.27 in 10.0 mi WNW 3.5 mph - N/A   Clear
5:55 AM 34.0 °F 31.0 °F 21.9 °F 61% 30.27 in 10.0 mi NW 3.5 mph - N/A   Clear
6:15 AM 34.0 °F 29.8 °F 21.7 °F 61% 30.27 in 10.0 mi WNW 4.6 mph - N/A   Clear
6:34 AM 33.8 °F 28.6 °F 21.6 °F 61% 30.28 in 10.0 mi West 5.8 mph - N/A   Clear
6:55 AM 33.4 °F 28.1 °F 21.7 °F 62% 30.28 in 10.0 mi West 5.8 mph - N/A   Clear
7:15 AM 32.9 °F 27.5 °F 21.7 °F 64% 30.28 in 10.0 mi WNW 5.8 mph - N/A   Clear
7:35 AM 32.9 °F 25.9 °F 21.6 °F 63% 30.28 in 10.0 mi WNW 8.1 mph - N/A   Clear
7:55 AM 32.9 °F 26.7 °F 21.2 °F 62% 30.29 in 10.0 mi WNW 6.9 mph - N/A   Clear
8:14 AM 33.4 °F 26.6 °F 21.2 °F 61% 30.29 in 10.0 mi WNW 8.1 mph - N/A   Clear
8:35 AM 34.9 °F 28.3 °F 21.0 °F 57% 30.29 in 10.0 mi NW 8.1 mph - N/A   Clear
8:55 AM 36.3 °F 29.5 °F 20.3 °F 52% 30.29 in 10.0 mi NW 9.2 mph - N/A   Clear
9:14 AM 37.6 °F 33.1 °F 20.5 °F 50% 30.29 in 10.0 mi NW 5.8 mph - N/A   Clear
9:35 AM 39.2 °F 33.6 °F 19.9 °F 46% 30.29 in 10.0 mi NW 8.1 mph - N/A   Clear
9:55 AM 41.0 °F 35.8 °F 19.6 °F 42% 30.29 in 10.0 mi WNW 8.1 mph - N/A   Clear
10:15 AM 41.5 °F 36.4 °F 19.4 °F 41% 30.29 in 10.0 mi WNW 8.1 mph - N/A   Clear
10:35 AM 42.1 °F 38.4 °F 20.3 °F 42% 30.29 in 10.0 mi NW 5.8 mph - N/A   Clear
10:55 AM 43.7 °F 39.1 °F 20.1 °F 39% 30.29 in 10.0 mi WNW 8.1 mph - N/A   Clear
11:15 AM 44.1 °F 41.5 °F 20.7 °F 39% 30.29 in 10.0 mi WNW 4.6 mph - N/A   Clear
11:35 AM 45.3 °F 42.3 °F 20.3 °F 37% 30.29 in 10.0 mi West 5.8 mph - N/A   Clear
11:55 AM 45.9 °F 42.9 °F 20.7 °F 37% 30.29 in 10.0 mi WNW 5.8 mph - N/A   Clear
12:15 PM 46.8 °F - 21.0 °F 36% 30.28 in 10.0 mi West 6.9 mph - N/A   Clear
12:55 PM 47.5 °F - 20.1 °F 34% 30.27 in 10.0 mi WNW 5.8 mph - N/A   Clear
1:15 PM 48.0 °F - 20.1 °F 33% 30.27 in 10.0 mi SW 4.6 mph - N/A   Clear
1:34 PM 48.9 °F - 19.9 °F 32% 30.27 in 10.0 mi NNW 8.1 mph - N/A   Clear
1:55 PM 49.6 °F - 19.9 °F 31% 30.26 in 10.0 mi Calm Calm - N/A   Clear
2:14 PM 50.7 °F - 20.7 °F 31% 30.25 in 10.0 mi NW 6.9 mph - N/A   Clear
2:35 PM 50.0 °F - 19.9 °F 31% 30.25 in 10.0 mi NNW 4.6 mph - N/A   Clear
2:55 PM 51.1 °F - 20.1 °F 30% 30.24 in 10.0 mi NW 3.5 mph - N/A   Clear
3:14 PM 51.3 °F - 19.9 °F 29% 30.23 in 10.0 mi West 3.5 mph - N/A   Scattered Clouds
3:35 PM 52.3 °F - 18.3 °F 26% 30.22 in 10.0 mi WSW 4.6 mph - N/A   Clear
3:55 PM 51.6 °F - 19.4 °F 28% 30.22 in 10.0 mi NNW 4.6 mph - N/A   Scattered Clouds
4:15 PM 50.5 °F - 18.3 °F 28% 30.22 in 10.0 mi WNW 9.2 mph - N/A   Scattered Clouds
4:35 PM 51.6 °F - 19.4 °F 28% 30.22 in 10.0 mi NW 5.8 mph - N/A   Clear
4:55 PM 52.2 °F - 19.6 °F 28% 30.20 in 10.0 mi North 5.8 mph - N/A   Mostly Cloudy
5:15 PM 53.1 °F - 18.9 °F 26% 30.20 in 10.0 mi North 9.2 mph - N/A   Scattered Clouds
5:35 PM 51.6 °F - 18.5 °F 27% 30.20 in 10.0 mi WNW 6.9 mph - N/A   Mostly Cloudy
5:55 PM 52.5 °F - 18.3 °F 26% 30.20 in 10.0 mi WNW 8.1 mph - N/A   Mostly Cloudy
6:15 PM 51.1 °F - 19.2 °F 29% 30.20 in 10.0 mi West 8.1 mph - N/A   Scattered Clouds
6:35 PM 50.5 °F - 18.9 °F 29% 30.21 in 10.0 mi WNW 8.1 mph - N/A   Clear
6:55 PM 50.7 °F - 18.7 °F 28% 30.21 in 10.0 mi NW 4.6 mph - N/A   Clear
7:15 PM 50.5 °F - 18.9 °F 29% 30.21 in 10.0 mi West 3.5 mph - N/A   Scattered Clouds
7:35 PM 50.0 °F - 18.7 °F 29% 30.21 in 10.0 mi WNW 5.8 mph - N/A   Overcast
7:55 PM 49.3 °F - 18.5 °F 30% 30.22 in 10.0 mi WNW 8.1 mph - N/A   Overcast
8:15 PM 48.6 °F - 19.0 °F 31% 30.22 in 10.0 mi NW 5.8 mph - N/A   Mostly Cloudy
8:35 PM 47.5 °F - 19.2 °F 33% 30.22 in 10.0 mi NW 3.5 mph - N/A   Scattered Clouds
8:55 PM 46.6 °F - 18.9 °F 33% 30.23 in 10.0 mi NNW 3.5 mph - N/A   Clear
9:14 PM 46.0 °F 44.8 °F 19.2 °F 34% 30.23 in 10.0 mi North 3.5 mph - N/A   Clear
9:35 PM 45.1 °F - 19.2 °F 36% 30.23 in 10.0 mi Calm Calm - N/A   Clear
9:54 PM 45.5 °F 43.2 °F 19.9 °F 36% 30.24 in 10.0 mi East 4.6 mph - N/A   Clear
10:15 PM 44.6 °F 43.1 °F 21.0 °F 39% 30.24 in 10.0 mi ENE 3.5 mph - N/A   Clear
10:35 PM 43.7 °F - 22.5 °F 43% 30.25 in 10.0 mi Calm Calm - N/A   Clear
10:54 PM 42.4 °F - 23.0 °F 46% 30.24 in 10.0 mi Calm Calm - N/A   Clear
11:15 PM 41.0 °F - 23.5 °F 50% 30.24 in 10.0 mi Calm Calm - N/A   Clear
11:35 PM 40.3 °F - 23.5 °F 51% 30.24 in 10.0 mi Calm Calm - N/A   Clear
11:54 PM 39.2 °F - 23.7 °F 54% 30.24 in 10.0 mi Calm Calm - N/A   Clear